GW4236 Weather Reports


time (UTC)temp
C
wind
direction
speed
KPH
gust
KPH
rain 1hr
cm
rain 24hr
cm
rain mn
cm
humidity
%
barometer
mb
20260506103536 14 106 9.7 12.9 0.00 0.00 0.00 76 1011.9
20260506103033 15 131 3.2 12.9 0.00 0.00 0.00 76 1011.8
20260506102531 15 1 8.0 11.3 0.00 0.00 0.00 76 1011.7
20260506102028 15 87 3.2 4.8 0.00 0.00 0.00 76 1011.8
20260506101525 15 92 6.4 14.5 0.00 0.00 0.00 76 1011.4
20260506101022 15 223 6.4 11.3 0.00 0.00 0.00 76 1011.5
20260506100520 15 33 3.2 11.3 0.00 0.00 0.00 76 1011.3
20260506100018 15 6 11.3 14.5 0.00 0.00 0.00 76 1011.4
20260506095517 15 313 4.8 11.3 0.00 0.00 0.00 76 1011.4
20260506095012 15 279 4.8 4.8 0.00 0.00 0.00 76 1011.3
20260506094510 15 117 6.4 9.7 0.00 0.00 0.00 76 1011.3
20260506094008 15 37 3.2 4.8 0.00 0.00 0.00 76 1011.4
20260506093506 15 347 4.8 11.3 0.00 0.00 0.00 76 1011.5
20260506093004 15 345 6.4 12.9 0.00 0.00 0.00 76 1011.4
20260506092501 15 48 6.4 12.9 0.00 0.00 0.00 76 1011.2
20260506091957 15 210 3.2 9.7 0.00 0.00 0.00 76 1011.3
20260506091456 15 51 6.4 9.7 0.00 0.00 0.00 76 1011.1
20260506090953 15 297 9.7 12.9 0.00 0.00 0.00 76 1011.1
20260506090451 15 7 8.0 11.3 0.00 0.00 0.00 76 1011.1
20260506085946 15 23 6.4 9.7 0.00 0.00 0.00 77 1010.9
20260506085444 15 354 6.4 12.9 0.00 0.00 0.00 76 1010.9
20260506084940 15 352 4.8 9.7 0.00 0.00 0.00 76 1010.7
20260506084437 15 24 6.4 9.7 0.00 0.00 0.00 76 1010.8
20260506083933 15 189 1.6 6.4 0.00 0.00 0.00 77 1010.7
20260506083430 15 341 6.4 9.7 0.00 0.00 0.00 76 1010.6
20260506082928 15 215 4.8 6.4 0.00 0.00 0.00 77 1010.6
20260506082425 15 83 4.8 9.7 0.00 0.00 0.00 77 1010.7
20260506081920 15 213 3.2 6.4 0.00 0.00 0.00 77 1010.6
20260506081419 15 209 3.2 9.7 0.00 0.00 0.00 76 1010.5
20260506080916 16 113 3.2 6.4 0.00 0.00 0.00 76 1010.6
20260506080412 16 116 1.6 6.4 0.00 0.00 0.00 76 1010.9
20260506073356 16 79 4.8 12.9 0.00 0.00 0.00 77 1010.7
20260506072853 16 8 6.4 11.3 0.00 0.00 0.00 77 1011.0
20260506072351 16 161 8.0 11.3 0.00 0.00 0.00 77 1010.9
20260506071848 16 252 4.8 12.9 0.00 0.00 0.00 77 1010.9
20260506071346 16 55 0.0 4.8 0.00 0.00 0.00 78 1010.7
20260506070843 16 134 3.2 9.7 0.00 0.00 0.00 78 1010.8
20260506070340 16 300 4.8 6.4 0.00 0.00 0.00 78 1010.7
20260506062317 17 143 3.2 14.5 0.00 0.00 0.00 79 1010.4
20260506061813 17 132 3.2 6.4 0.00 0.00 0.00 79 1010.4
20260506061310 17 266 3.2 4.8 0.00 0.00 0.00 78 1010.6
20260506060808 17 127 1.6 6.4 0.00 0.00 0.00 79 1010.7
20260506060306 17 53 8.0 11.3 0.00 0.00 0.00 79 1010.6
20260506051237 20 42 6.4 20.9 0.00 0.00 0.00 77 1010.1
20260506050735 20 80 4.8 11.3 0.00 0.00 0.00 77 1010.2
20260506050232 20 331 6.4 16.1 0.00 0.00 0.00 77 1010.0
20260506044723 21 226 3.2 12.9 0.00 0.00 0.00 77 1009.8
20260506044220 21 34 8.0 9.7 0.00 0.00 0.00 77 1009.8
20260506043718 21 313 6.4 9.7 0.00 0.00 0.00 77 1009.8
20260506043215 21 316 6.4 11.3 0.00 0.00 0.00 77 1009.5
20260506042714 21 112 9.7 17.7 0.00 0.00 0.00 76 1009.6
20260506042212 21 15 6.4 11.3 0.00 0.00 0.00 76 1009.7
20260506041710 21 136 6.4 12.9 0.00 0.00 0.00 76 1009.7
20260506041207 22 141 6.4 12.9 0.00 0.00 0.00 76 1009.4
20260506040704 22 342 6.4 14.5 0.00 0.00 0.00 76 1009.4
20260506040201 22 184 8.0 11.3 0.00 0.00 0.00 76 1009.5
20260506035658 22 166 3.2 6.4 0.00 0.00 0.00 77 1009.4
20260506035155 22 208 1.6 6.4 0.00 0.00 0.00 76 1009.3
20260506034651 22 283 3.2 4.8 0.00 0.00 0.00 76 1009.0
20260506034149 23 154 0.0 17.7 0.00 0.00 0.00 76 1009.0
20260506033646 23 10 8.0 16.1 0.00 0.00 0.00 75 1009.1
20260506033143 23 337 11.3 17.7 0.00 0.00 0.00 75 1009.2
20260506032640 23 99 3.2 14.5 0.00 0.00 0.00 74 1009.2
20260506032137 23 293 1.6 14.5 0.00 0.00 0.00 74 1009.0
20260506031634 23 41 6.4 14.5 0.00 0.00 0.00 74 1008.8
20260506031131 24 328 6.4 14.5 0.00 0.00 0.00 74 1008.8
20260506030629 24 89 3.2 12.9 0.00 0.00 0.00 74 1008.5
20260506030126 24 249 4.8 6.4 0.00 0.00 0.00 74 1008.5
20260506025623 25 139 1.6 9.7 0.00 0.00 0.00 74 1008.3
20260506025119 25 319 4.8 6.4 0.00 0.00 0.00 74 1008.0
20260506024617 26 221 3.2 3.2 0.00 0.00 0.00 81 1007.9
20260506024112 26 183 0.0 1.6 0.00 0.00 0.00 81 1007.5
20260506023609 26 193 0.0 3.2 0.00 0.00 0.00 81 1007.6
20260506023106 26 196 0.0 1.6 0.00 0.00 0.00 80 1007.3
20260506022604 26 191 0.0 0.0 0.00 0.00 0.00 80 1007.4
20260506022101 26 191 0.0 1.6 0.00 0.00 0.00 80 1007.4
20260506021559 26 217 0.0 1.6 0.00 0.00 0.00 80 1007.2
20260506021055 26 193 0.0 1.6 0.00 0.00 0.00 79 1006.9
20260506020553 26 194 1.6 3.2 0.00 0.00 0.00 79 1007.2
20260506020050 26 183 0.0 1.6 0.00 0.00 0.00 79 1007.3
20260506015548 26 202 0.0 0.0 0.00 0.00 0.00 79 1007.2
20260506015044 26 193 0.0 0.0 0.00 0.00 0.00 79 1007.0
20260506014542 26 192 0.0 1.6 0.00 0.00 0.00 79 1006.9
20260506014037 26 197 1.6 1.6 0.00 0.00 0.00 79 1006.9
20260506013536 26 209 0.0 1.6 0.00 0.00 0.00 79 1006.8
20260506013032 26 214 1.6 3.2 0.00 0.00 0.00 79 1006.8
20260506012528 26 191 1.6 3.2 0.00 0.00 0.00 79 1006.4
20260506012025 26 186 3.2 9.7 0.00 0.00 0.00 78 1006.1
20260506011523 26 181 1.6 4.8 0.00 0.00 0.00 78 1006.0
20260506011019 26 181 1.6 4.8 0.00 0.00 0.00 77 1006.3
20260506010513 26 191 6.4 6.4 0.00 0.00 0.00 77 1006.5
20260506010009 26 195 3.2 9.7 0.00 0.00 0.00 77 1006.4
20260506005506 27 194 4.8 9.7 0.00 0.00 0.00 76 1006.5
20260506005001 27 198 3.2 9.7 0.00 0.00 0.00 76 1006.6
20260506004500 27 219 4.8 9.7 0.00 0.00 0.00 76 1006.2
20260506003955 27 162 4.8 6.4 0.00 0.00 0.00 76 1006.4
20260506003452 27 203 1.6 12.9 0.00 0.00 0.00 75 1006.4
20260506002948 27 201 4.8 9.7 0.00 0.00 0.00 75 1006.4
20260506002445 27 196 4.8 9.7 0.00 0.00 0.00 74 1005.9
20260506001940 27 199 6.4 11.3 0.00 0.00 0.00 74 1006.1
20260506001437 27 105 8.0 16.1 0.00 0.00 0.00 74 1006.1
20260506000934 27 257 4.8 12.9 0.00 0.00 0.00 74 1006.0
20260506000432 27 183 6.4 11.3 0.00 0.00 0.00 74 1005.8
20260505235929 27 142 8.0 14.5 0.00 0.00 0.00 74 1005.8
20260505235427 27 220 4.8 9.7 0.00 0.00 0.00 73 1006.0
20260505234924 28 200 6.4 14.5 0.00 0.00 0.00 73 1006.1
20260505234421 28 252 8.0 16.1 0.00 0.00 0.00 73 1006.1
20260505233917 28 210 8.0 17.7 0.00 0.00 0.00 72 1005.9
20260505233415 28 165 8.0 11.3 0.00 0.00 0.00 72 1005.9
20260505232912 28 217 11.3 16.1 0.00 0.00 0.00 71 1005.8
20260505232410 28 232 9.7 12.9 0.00 0.00 0.00 71 1006.0
20260505231907 28 135 6.4 16.1 0.00 0.00 0.00 71 1006.0
20260505231405 28 224 6.4 14.5 0.00 0.00 0.00 71 1006.0
20260505230903 29 180 9.7 17.7 0.00 0.00 0.00 70 1005.6
20260505230400 30 233 11.3 14.5 0.00 0.00 0.00 68 1005.6
20260505225856 30 225 4.8 11.3 0.00 0.00 0.00 68 1005.7
20260505225354 30 212 6.4 14.5 0.00 0.00 0.00 68 1005.8
20260505224848 30 219 8.0 14.5 0.00 0.00 0.00 67 1005.7
20260505224346 30 204 11.3 17.7 0.00 0.00 0.00 66 1005.6
20260505223843 30 168 6.4 12.9 0.00 0.00 0.00 66 1005.6
20260505223340 30 164 9.7 14.5 0.00 0.00 0.00 67 1005.5
20260505222836 30 211 9.7 16.1 0.00 0.00 0.00 67 1005.5
20260505222332 30 172 4.8 9.7 0.00 0.00 0.00 66 1005.4
20260505221830 31 220 9.7 12.9 0.00 0.00 0.00 64 1005.4
20260505221326 30 225 6.4 11.3 0.00 0.00 0.00 66 1005.5
20260505220823 30 142 6.4 12.9 0.00 0.00 0.00 65 1005.6
20260505220320 31 197 4.8 16.1 0.00 0.00 0.00 65 1005.5
20260505215818 30 235 8.0 12.9 0.00 0.00 0.00 66 1005.4
20260505215316 31 204 6.4 14.5 0.00 0.00 0.00 64 1005.6
20260505214814 30 224 3.2 16.1 0.00 0.00 0.00 66 1005.8
20260505214311 30 161 6.4 14.5 0.00 0.00 0.00 66 1005.6
20260505213808 30 198 6.4 17.7 0.00 0.00 0.00 65 1005.9
20260505213306 30 206 6.4 12.9 0.00 0.00 0.00 66 1005.7
20260505212801 30 212 6.4 12.9 0.00 0.00 0.00 66 1005.8
20260505212259 30 158 3.2 12.9 0.00 0.00 0.00 66 1005.8
20260505211755 31 190 6.4 12.9 0.00 0.00 0.00 65 1006.0
20260505211253 30 192 6.4 9.7 0.00 0.00 0.00 66 1005.8
20260505210749 30 173 4.8 14.5 0.00 0.00 0.00 66 1005.9
20260505210246 30 156 6.4 14.5 0.00 0.00 0.00 65 1006.0
20260505205743 30 223 14.5 20.9 0.00 0.00 0.00 65 1006.1
20260505205242 31 180 4.8 11.3 0.00 0.00 0.00 64 1005.9
20260505204738 30 169 8.0 14.5 0.00 0.00 0.00 64 1006.2
20260505204236 31 210 6.4 16.1 0.00 0.00 0.00 64 1006.2
20260505203733 31 221 9.7 14.5 0.00 0.00 0.00 63 1006.2
20260505203230 30 350 14.5 20.9 0.00 0.00 0.00 64 1006.3
20260505202725 30 222 3.2 11.3 0.00 0.00 0.00 66 1006.3
20260505202221 31 193 11.3 16.1 0.00 0.00 0.00 65 1006.4
20260505201718 31 291 6.4 12.9 0.00 0.00 0.00 64 1006.4
20260505201216 30 197 9.7 16.1 0.00 0.00 0.00 64 1006.3
20260505200714 30 161 6.4 22.5 0.00 0.00 0.00 64 1006.3
20260505200210 30 201 4.8 11.3 0.00 0.00 0.00 65 1006.4
20260505195706 30 198 6.4 22.5 0.00 0.00 0.00 65 1006.3
20260505195204 30 165 12.9 14.5 0.00 0.00 0.00 64 1006.5
20260505194701 30 158 6.4 16.1 0.00 0.00 0.00 65 1006.6
20260505194157 30 210 9.7 20.9 0.00 0.00 0.00 65 1006.4
20260505193654 30 152 9.7 14.5 0.00 0.00 0.00 64 1006.3
20260505193151 29 209 12.9 22.5 0.00 0.00 0.00 65 1006.4
20260505192650 29 205 8.0 27.4 0.00 0.00 0.00 66 1006.5
20260505192147 29 24 9.7 17.7 0.00 0.00 0.00 66 1006.8
20260505191645 29 171 11.3 22.5 0.00 0.00 0.00 66 1006.5
20260505191143 29 182 9.7 25.7 0.00 0.00 0.00 66 1006.8
20260505190639 28 229 14.5 24.1 0.00 0.00 0.00 68 1006.8
20260505190138 28 191 11.3 20.9 0.00 0.00 0.00 67 1006.9
20260505185635 28 198 12.9 17.7 0.00 0.00 0.00 68 1006.9
20260505185131 28 165 8.0 16.1 0.00 0.00 0.00 68 1006.9
20260505184628 28 154 4.8 20.9 0.00 0.00 0.00 69 1006.9
20260505184125 28 220 14.5 24.1 0.00 0.00 0.00 68 1007.1
20260505183622 28 307 4.8 12.9 0.00 0.00 0.00 68 1007.0
20260505183119 28 205 11.3 16.1 0.00 0.00 0.00 69 1007.0
20260505182615 28 330 12.9 20.9 0.00 0.00 0.00 68 1007.0
20260505182112 28 250 9.7 16.1 0.00 0.00 0.00 69 1007.1
20260505181609 27 169 14.5 22.5 0.00 0.00 0.00 70 1006.9
20260505181106 27 206 6.4 16.1 0.00 0.00 0.00 70 1007.2
20260505180602 27 213 8.0 24.1 0.00 0.00 0.00 69 1007.1
20260505180100 27 198 11.3 20.9 0.00 0.00 0.00 70 1007.2
20260505175555 27 205 6.4 16.1 0.00 0.00 0.00 71 1007.1
20260505175052 27 205 8.0 24.1 0.00 0.00 0.00 71 1007.0
20260505174549 27 190 12.9 16.1 0.00 0.00 0.00 71 1007.0
20260505174045 27 208 9.7 17.7 0.00 0.00 0.00 71 1007.2
20260505173542 27 223 9.7 14.5 0.00 0.00 0.00 70 1007.1
20260505173039 27 199 11.3 17.7 0.00 0.00 0.00 71 1007.2
20260505172537 27 217 6.4 17.7 0.00 0.00 0.00 71 1007.1
20260505172033 27 192 19.3 25.7 0.00 0.00 0.00 69 1007.2
20260505171528 27 215 8.0 24.1 0.00 0.00 0.00 71 1007.4
20260505171025 27 104 4.8 16.1 0.00 0.00 0.00 70 1007.1
20260505170522 27 231 16.1 24.1 0.00 0.00 0.00 71 1007.1
20260505170018 27 211 19.3 25.7 0.00 0.00 0.00 70 1007.3
20260505165514 27 266 6.4 20.9 0.00 0.00 0.00 71 1007.2
20260505165009 26 180 8.0 29.0 0.00 0.00 0.00 71 1006.8
20260505164506 26 178 8.0 20.9 0.00 0.00 0.00 73 1007.0
20260505164004 26 190 12.9 20.9 0.00 0.00 0.00 72 1007.2
20260505163502 26 230 14.5 22.5 0.00 0.00 0.00 74 1007.1
20260505163002 26 199 12.9 22.5 0.00 0.00 0.00 72 1006.9
20260505162456 26 234 8.0 20.9 0.00 0.00 0.00 73 1007.1
20260505161953 26 196 9.7 24.1 0.00 0.00 0.00 74 1007.1
20260505161450 25 157 12.9 29.0 0.00 0.00 0.00 75 1007.3
20260505160947 26 315 12.9 25.7 0.00 0.00 0.00 74 1007.1
20260505160446 26 266 11.3 17.7 0.00 0.00 0.00 74 1007.0
20260505152922 24 211 16.1 24.1 0.00 0.00 0.00 78 1007.3
20260505152419 25 231 14.5 24.1 0.00 0.00 0.00 78 1007.1
20260505151913 24 148 14.5 25.7 0.00 0.00 0.00 78 1007.1
20260505151410 24 201 4.8 24.1 0.00 0.00 0.00 80 1007.1
20260505150907 23 223 9.7 20.9 0.00 0.00 0.00 80 1007.3
20260505150404 23 214 12.9 22.5 0.00 0.00 0.00 81 1007.4
20260505140334 22 146 3.2 11.3 0.00 0.00 0.00 84 1007.4
20260505130257 22 200 6.4 16.1 0.00 0.00 0.00 86 1006.8
20260505124748 21 198 1.6 11.3 0.00 0.00 0.00 87 1006.7
20260505124245 21 141 6.4 11.3 0.00 0.00 0.00 87 1006.6
20260505123740 21 213 6.4 14.5 0.00 0.00 0.00 87 1006.4
20260505123237 21 143 6.4 12.9 0.00 0.00 0.00 87 1006.2
20260505122734 21 233 6.4 12.9 0.00 0.00 0.00 87 1006.2
20260505122231 21 299 9.7 12.9 0.00 0.00 0.00 87 1006.3
20260505121727 21 121 6.4 12.9 0.00 0.00 0.00 87 1006.5
20260505121224 21 174 4.8 16.1 0.00 0.00 0.00 87 1006.4
20260505120721 21 222 9.7 22.5 0.00 0.00 0.00 87 1006.3
20260505120217 21 194 4.8 12.9 0.00 0.00 0.00 87 1006.2
20260505115715 21 246 6.4 12.9 0.00 0.00 0.00 87 1006.1
20260505115213 21 216 4.8 12.9 0.00 0.00 0.00 87 1006.3
20260505114710 21 217 6.4 12.9 0.00 0.00 0.00 87 1006.5
20260505114206 21 229 8.0 17.7 0.00 0.00 0.00 87 1006.4
20260505113703 21 205 3.2 12.9 0.00 0.00 0.00 87 1006.2
20260505113159 21 221 4.8 17.7 0.00 0.00 0.00 87 1006.3
20260505112656 21 212 3.2 12.9 0.00 0.00 0.00 87 1006.1
20260505112154 21 219 9.7 12.9 0.00 0.00 0.00 87 1006.3
20260505111653 21 207 8.0 12.9 0.00 0.00 0.00 87 1006.4
20260505111149 21 221 6.4 20.9 0.00 0.00 0.00 87 1006.1
20260505110645 21 205 9.7 22.5 0.00 0.00 0.00 87 1005.9
20260505110143 21 194 4.8 12.9 0.00 0.00 0.00 87 1005.8